GW0207 Weather Reports


Display with metric or nautical units.
time (UTC)temp
F
wind
direction
speed
MPH
gust
MPH
rain 1hr
in
rain 24hr
in
rain mn
in
humidity
%
barometer
mb
20260506135202 66 60 0.0 2.0 0.00 0.00 0.00 78 1013.8
20260506134703 66 80 0.0 4.0 0.00 0.00 0.00 78 1013.8
20260506134201 65 139 0.0 4.0 0.00 0.00 0.00 79 1013.8
20260506133701 65 48 0.0 1.0 0.00 0.00 0.00 79 1014.0
20260506133202 65 53 0.0 1.0 0.00 0.00 0.00 80 1014.0
20260506132702 65 23 0.0 1.0 0.00 0.00 0.00 80 1014.1
20260506132201 65 213 0.0 1.0 0.00 0.00 0.00 79 1014.3
20260506131701 65 32 0.0 3.0 0.00 0.00 0.00 80 1014.1
20260506131425 65 50 0.0 3.0 0.00 0.00 0.00 80 1013.8
20260506130701 65 44 0.0 2.0 0.00 0.00 0.00 80 1013.8
20260506130201 65 26 0.0 3.0 0.00 0.00 0.00 80 1013.9
20260506125701 64 43 0.0 3.0 0.00 0.00 0.00 81 1013.7
20260506125203 64 29 0.0 1.0 0.00 0.00 0.00 82 1013.6
20260506124700 64 175 0.0 5.0 0.00 0.00 0.00 83 1013.5
20260506124201 64 170 0.0 5.0 0.00 0.00 0.00 84 1013.5
20260506123701 63 47 0.0 1.0 0.00 0.00 0.00 84 1013.5
20260506123201 63 57 0.0 1.0 0.00 0.00 0.00 85 1013.5
20260506122700 63 110 0.0 1.0 0.00 0.00 0.00 85 1013.4
20260506122201 63 76 0.0 1.0 0.00 0.00 0.00 85 1013.2
20260506121701 63 83 0.0 0.0 0.00 0.00 0.00 85 1013.1
20260506121201 63 106 0.0 1.0 0.00 0.00 0.00 86 1013.1
20260506120927 62 23 0.0 1.0 0.00 0.00 0.00 86 1013.1
20260506120200 62 234 0.0 1.0 0.00 0.00 0.00 86 1013.0
20260506115701 62 73 0.0 1.0 0.00 0.00 0.00 86 1013.1
20260506115201 62 257 0.0 1.0 0.00 0.00 0.00 87 1013.1
20260506114700 62 55 0.0 1.0 0.00 0.00 0.00 87 1013.3
20260506114200 61 154 0.0 1.0 0.00 0.00 0.00 87 1013.3
20260506113703 61 271 0.0 0.0 0.00 0.00 0.00 87 1013.3
20260506113203 61 211 0.0 2.0 0.00 0.00 0.00 87 1013.3
20260506112703 61 266 0.0 2.0 0.00 0.00 0.00 87 1013.4
20260506112205 61 296 0.0 0.0 0.00 0.00 0.00 88 1013.3
20260506111702 61 65 0.0 1.0 0.00 0.00 0.00 88 1013.3
20260506111204 61 44 0.0 1.0 0.00 0.00 0.00 88 1013.1
20260506110703 61 81 0.0 1.0 0.00 0.00 0.00 88 1013.0
20260506110203 61 112 0.0 1.0 0.00 0.00 0.00 88 1013.1
20260506105702 61 78 0.0 1.0 0.00 0.00 0.00 88 1013.1
20260506105204 60 79 0.0 1.0 0.00 0.00 0.00 89 1013.0
20260506104703 60 88 0.0 1.0 0.00 0.00 0.00 89 1013.0
20260506104204 60 34 0.0 1.0 0.00 0.00 0.00 89 1012.9
20260506103701 60 73 0.0 1.0 0.00 0.00 0.00 89 1012.9
20260506103201 60 198 0.0 1.0 0.00 0.00 0.00 89 1013.1
20260506102701 60 223 0.0 1.0 0.00 0.00 0.00 88 1013.0
20260506102428 60 108 0.0 1.0 0.00 0.00 0.00 88 1013.2
20260506101700 60 220 0.0 0.0 0.00 0.00 0.00 88 1013.1
20260506101200 60 294 0.0 0.0 0.00 0.00 0.00 88 1013.2
20260506100702 61 135 0.0 0.0 0.00 0.00 0.00 87 1013.3
20260506100203 61 133 0.0 1.0 0.00 0.00 0.00 87 1013.3
20260506095700 61 121 0.0 1.0 0.00 0.00 0.00 87 1013.3
20260506095200 61 121 0.0 0.0 0.00 0.00 0.00 87 1013.3
20260506094702 61 49 0.0 0.0 0.00 0.00 0.00 87 1013.2
20260506094202 61 29 0.0 1.0 0.00 0.00 0.00 87 1013.3
20260506093701 61 81 0.0 1.0 0.00 0.00 0.00 87 1013.3
20260506093201 61 125 0.0 0.0 0.00 0.00 0.00 87 1013.4
20260506093148 61 176 0.0 1.0 0.00 0.00 0.00 87 1013.5
20260506092204 61 97 0.0 1.0 0.00 0.00 0.00 87 1013.6
20260506091703 61 229 0.0 0.0 0.00 0.00 0.00 87 1013.5
20260506091203 61 109 0.0 0.0 0.00 0.00 0.00 86 1013.4
20260506090702 61 109 0.0 0.0 0.00 0.00 0.00 86 1013.4
20260506090205 61 107 0.0 0.0 0.00 0.00 0.00 86 1013.3
20260506085705 61 215 0.0 1.0 0.00 0.00 0.00 86 1013.3
20260506085204 61 215 0.0 1.0 0.00 0.00 0.00 86 1013.3
20260506084703 61 50 0.0 1.0 0.00 0.00 0.00 86 1013.4
20260506084203 61 163 0.0 0.0 0.00 0.00 0.00 85 1013.5
20260506083703 61 111 0.0 0.0 0.00 0.00 0.00 85 1013.3
20260506083204 62 240 0.0 0.0 0.00 0.00 0.00 85 1013.4
20260506082927 62 143 0.0 0.0 0.00 0.00 0.00 85 1013.3
20260506082203 62 58 0.0 1.0 0.00 0.00 0.00 85 1013.4
20260506081703 62 102 0.0 1.0 0.00 0.00 0.00 85 1013.2
20260506081204 62 61 0.0 1.0 0.00 0.00 0.00 85 1013.3
20260506080703 62 57 0.0 1.0 0.00 0.00 0.00 85 1013.2
20260506080204 62 124 0.0 1.0 0.00 0.00 0.00 84 1013.3
20260506073205 62 102 0.0 1.0 0.00 0.00 0.00 83 1013.5
20260506072703 62 74 0.0 1.0 0.00 0.00 0.00 83 1013.4
20260506072203 62 111 0.0 1.0 0.00 0.00 0.00 83 1013.6
20260506071703 62 106 0.0 1.0 0.00 0.00 0.00 83 1013.6
20260506071203 62 50 0.0 1.0 0.00 0.00 0.00 83 1013.5
20260506070703 62 79 0.0 1.0 0.00 0.00 0.00 83 1013.4
20260506070203 62 95 0.0 1.0 0.00 0.00 0.00 83 1013.5
20260506062201 63 124 0.0 2.0 0.00 0.00 0.00 81 1013.8
20260506061702 63 214 0.0 2.0 0.00 0.00 0.00 81 1013.9
20260506061201 63 93 0.0 1.0 0.00 0.00 0.00 81 1013.9
20260506060700 63 42 0.0 1.0 0.00 0.00 0.00 81 1013.9
20260506060201 63 89 0.0 1.0 0.00 0.00 0.00 81 1014.0
20260506051141 64 86 0.0 3.0 0.00 0.00 0.00 80 1014.3
20260506050639 64 137 0.0 2.0 0.00 0.00 0.00 80 1014.3
20260506050139 64 81 0.0 5.0 0.00 0.00 0.00 80 1014.4
20260506044637 65 84 0.0 1.0 0.00 0.00 0.00 80 1014.5
20260506044400 65 187 0.0 5.0 0.00 0.00 0.00 79 1014.5
20260506043635 65 210 0.0 5.0 0.00 0.00 0.00 79 1014.5
20260506043133 65 118 0.0 1.0 0.00 0.00 0.00 79 1014.5
20260506042631 65 74 0.0 4.0 0.00 0.00 0.00 79 1014.4
20260506042133 65 101 0.0 4.0 0.00 0.00 0.00 78 1014.5
20260506041630 65 330 0.0 7.0 0.00 0.00 0.00 78 1014.5
20260506041613 65 65 0.0 7.0 0.00 0.00 0.00 78 1014.5
20260506040629 65 161 0.0 5.0 0.00 0.00 0.00 78 1014.4
20260506040129 65 63 0.0 3.0 0.00 0.00 0.00 77 1014.4
20260506035856 66 68 0.0 4.0 0.00 0.00 0.00 77 1014.5
20260506035130 66 153 0.0 4.0 0.00 0.00 0.00 76 1014.5
20260506034629 66 154 0.0 5.0 0.00 0.00 0.00 76 1014.5
20260506034131 66 143 0.0 5.0 0.00 0.00 0.00 75 1014.5
20260506033628 66 133 0.0 3.0 0.00 0.00 0.00 74 1014.5
20260506033350 67 243 0.0 3.0 0.00 0.00 0.00 74 1014.5
20260506032630 67 286 0.0 3.0 0.00 0.00 0.00 73 1014.4
20260506032129 67 44 0.0 3.0 0.00 0.00 0.00 73 1014.6
20260506031630 67 297 0.0 1.0 0.00 0.00 0.00 72 1014.7
20260506031129 67 174 0.0 6.0 0.00 0.00 0.00 72 1014.6
20260506030852 67 176 0.0 6.0 0.00 0.00 0.00 71 1014.6
20260506030129 67 112 0.0 5.0 0.00 0.00 0.00 71 1014.6
20260506025629 68 101 0.0 5.0 0.00 0.00 0.00 71 1014.6
20260506025130 68 263 0.0 5.0 0.00 0.00 0.00 70 1014.5
20260506024631 68 91 0.0 2.0 0.00 0.00 0.00 70 1014.5
20260506024131 68 77 0.0 3.0 0.00 0.00 0.00 69 1014.5
20260506023629 68 98 0.0 5.0 0.00 0.00 0.00 69 1014.5
20260506023348 69 121 0.0 5.0 0.00 0.00 0.00 68 1014.4
20260506022856 69 169 0.0 3.0 0.00 0.00 0.00 68 1014.5
20260506022349 69 204 0.0 4.0 0.00 0.00 0.00 68 1014.4
20260506021629 69 109 0.0 4.0 0.00 0.00 0.00 67 1014.4
20260506021128 69 32 0.0 4.0 0.00 0.00 0.00 67 1014.4
20260506020629 70 186 0.0 4.0 0.00 0.00 0.00 66 1014.2
20260506020128 70 198 0.0 3.0 0.00 0.00 0.00 66 1014.2
20260506015629 70 197 0.0 2.0 0.00 0.00 0.00 65 1014.2
20260506015350 70 196 0.0 5.0 0.00 0.00 0.00 65 1014.0
20260506014628 70 109 0.0 5.0 0.00 0.00 0.00 65 1014.0
20260506014129 70 106 0.0 1.0 0.00 0.00 0.00 64 1013.9
20260506013629 71 218 0.0 3.0 0.00 0.00 0.00 64 1013.8
20260506013131 71 144 0.0 3.0 0.00 0.00 0.00 63 1013.7
20260506012628 71 62 0.0 1.0 0.00 0.00 0.00 63 1013.7
20260506012129 71 72 0.0 1.0 0.00 0.00 0.00 63 1013.6
20260506011630 71 140 0.0 4.0 0.00 0.00 0.00 62 1013.5
20260506011129 72 68 0.0 4.0 0.00 0.00 0.00 62 1013.5
20260506010847 72 49 0.0 1.0 0.00 0.00 0.00 61 1013.5
20260506010129 72 242 0.0 1.0 0.00 0.00 0.00 61 1013.4
20260506005630 72 99 0.0 1.0 0.00 0.00 0.00 61 1013.3
20260506005129 72 100 0.0 1.0 0.00 0.00 0.00 60 1013.2
20260506004629 72 173 0.0 1.0 0.00 0.00 0.00 60 1013.1
20260506004128 73 107 0.0 1.0 0.00 0.00 0.00 60 1013.1
20260506003847 73 204 0.0 1.0 0.00 0.00 0.00 59 1013.1
20260506003129 73 56 0.0 1.0 0.00 0.00 0.00 59 1013.0
20260506002629 73 79 0.0 1.0 0.00 0.00 0.00 59 1012.9
20260506002130 73 225 0.0 1.0 0.00 0.00 0.00 58 1012.9
20260506001628 73 119 0.0 1.0 0.00 0.00 0.00 58 1012.9
20260506001129 74 119 0.0 1.0 0.00 0.00 0.00 58 1012.8
20260506000629 74 73 0.0 1.0 0.00 0.00 0.00 57 1012.8
20260506000129 74 48 0.0 1.0 0.00 0.00 0.00 57 1012.7
20260505235629 74 136 0.0 2.0 0.00 0.00 0.00 56 1012.6
20260505235353 75 99 0.0 2.0 0.00 0.00 0.00 56 1012.7
20260505234631 75 85 0.0 2.0 0.00 0.00 0.00 55 1012.7
20260505234130 75 230 0.0 0.0 0.00 0.00 0.00 55 1012.7
20260505233629 76 108 0.0 0.0 0.00 0.00 0.00 54 1012.7
20260505233129 76 204 0.0 2.0 0.00 0.00 0.00 53 1012.6
20260505232631 76 115 0.0 2.0 0.00 0.00 0.00 53 1012.7
20260505232355 76 76 0.0 2.0 0.00 0.00 0.00 53 1012.7
20260505231629 76 199 0.0 2.0 0.00 0.00 0.00 53 1012.6
20260505231128 76 351 0.0 2.0 0.00 0.00 0.00 53 1012.6
20260505230629 76 105 0.0 2.0 0.00 0.00 0.00 52 1012.5
20260505230129 76 41 0.0 4.0 0.00 0.00 0.00 52 1012.6
20260505225629 76 285 0.0 9.0 0.00 0.00 0.00 51 1012.6
20260505225129 77 100 0.0 9.0 0.00 0.00 0.00 51 1012.6
20260505224629 77 50 0.0 4.0 0.00 0.00 0.00 50 1012.7
20260505224129 78 211 0.0 2.0 0.00 0.00 0.00 50 1012.7
20260505223629 78 193 0.0 2.0 0.00 0.00 0.00 49 1012.9
20260505223130 78 118 0.0 2.0 0.00 0.00 0.00 48 1012.8
20260505222629 78 160 0.0 6.0 0.00 0.00 0.00 48 1012.9
20260505222128 79 52 1.0 6.0 0.00 0.00 0.00 47 1012.9
20260505221629 79 164 1.0 6.0 0.00 0.00 0.00 47 1012.8
20260505221129 79 180 0.0 10.0 0.00 0.00 0.00 47 1012.8
20260505220629 79 95 1.0 10.0 0.00 0.00 0.00 47 1012.8
20260505220129 79 58 1.0 9.0 0.00 0.00 0.00 47 1012.8
20260505215629 79 41 0.0 5.0 0.00 0.00 0.00 46 1013.0
20260505215129 79 350 0.0 5.0 0.00 0.00 0.00 46 1012.8
20260505214629 79 48 1.0 4.0 0.00 0.00 0.00 46 1012.8
20260505214129 79 41 1.0 4.0 0.00 0.00 0.00 46 1012.9
20260505213629 79 19 1.0 5.0 0.00 0.00 0.00 46 1012.8
20260505213130 79 93 1.0 5.0 0.00 0.00 0.00 46 1012.9
20260505212629 79 198 1.0 6.0 0.00 0.00 0.00 47 1012.9
20260505212128 79 103 0.0 6.0 0.00 0.00 0.00 47 1012.9
20260505211633 78 192 0.0 5.0 0.00 0.00 0.00 48 1012.9
20260505211131 78 108 0.0 5.0 0.00 0.00 0.00 47 1012.9
20260505210631 79 311 0.0 5.0 0.00 0.00 0.00 45 1013.0
20260505210131 80 96 1.0 5.0 0.00 0.00 0.00 46 1013.1
20260505205631 80 43 1.0 5.0 0.00 0.00 0.00 46 1013.1
20260505205131 80 227 1.0 5.0 0.00 0.00 0.00 46 1013.1
20260505204630 81 105 0.0 4.0 0.00 0.00 0.00 45 1013.1
20260505204609 81 160 0.0 4.0 0.00 0.00 0.00 45 1013.2
20260505203631 81 54 1.0 5.0 0.00 0.00 0.00 46 1013.1
20260505203355 81 90 1.0 6.0 0.00 0.00 0.00 44 1013.0
20260505202631 81 220 1.0 7.0 0.00 0.00 0.00 45 1013.2
20260505202130 81 272 1.0 7.0 0.00 0.00 0.00 46 1013.1
20260505201630 80 106 1.0 8.0 0.00 0.00 0.00 47 1013.1
20260505201131 81 193 1.0 8.0 0.00 0.00 0.00 46 1013.4
20260505200631 80 152 1.0 7.0 0.00 0.00 0.00 46 1013.2
20260505200131 80 128 1.0 6.0 0.00 0.00 0.00 48 1013.4
20260505195632 81 51 1.0 8.0 0.00 0.00 0.00 45 1013.4
20260505195131 81 57 1.0 8.0 0.00 0.00 0.00 46 1013.3
20260505194631 81 254 1.0 6.0 0.00 0.00 0.00 45 1013.5
20260505194131 81 124 0.0 6.0 0.00 0.00 0.00 47 1013.8
20260505193631 80 219 0.0 4.0 0.00 0.00 0.00 47 1013.8
20260505193130 81 101 1.0 4.0 0.00 0.00 0.00 45 1013.8
20260505192848 81 41 1.0 5.0 0.00 0.00 0.00 46 1013.8
20260505192131 81 102 1.0 5.0 0.00 0.00 0.00 47 1014.0
20260505191631 80 83 0.0 5.0 0.00 0.00 0.00 46 1014.1
20260505191131 80 88 0.0 6.0 0.00 0.00 0.00 47 1014.1
20260505190632 80 141 0.0 6.0 0.00 0.00 0.00 45 1014.2
20260505190131 80 281 0.0 5.0 0.00 0.00 0.00 47 1014.3
20260505185850 80 17 1.0 5.0 0.00 0.00 0.00 46 1014.5
20260505185129 80 115 0.0 5.0 0.00 0.00 0.00 47 1014.5
20260505184628 81 181 0.0 4.0 0.00 0.00 0.00 47 1014.6
20260505184349 81 43 0.0 4.0 0.00 0.00 0.00 46 1014.7
20260505183631 81 342 0.0 6.0 0.00 0.00 0.00 47 1014.8
20260505183128 82 190 1.0 7.0 0.00 0.00 0.00 47 1014.9
20260505182628 81 273 1.0 7.0 0.00 0.00 0.00 45 1015.0
20260505182130 81 61 1.0 6.0 0.00 0.00 0.00 46 1014.9
20260505181629 81 209 0.0 3.0 0.00 0.00 0.00 46 1014.9
20260505181129 81 64 1.0 3.0 0.00 0.00 0.00 46 1015.1
20260505180849 80 252 1.0 6.0 0.00 0.00 0.00 46 1015.2
20260505180129 80 37 1.0 7.0 0.00 0.00 0.00 44 1015.2
20260505175629 80 37 1.0 7.0 0.00 0.00 0.00 45 1015.1
20260505175128 80 56 1.0 4.0 0.00 0.00 0.00 45 1015.0
20260505174629 81 286 1.0 5.0 0.00 0.00 0.00 46 1015.1
20260505174130 80 207 1.0 5.0 0.00 0.00 0.00 44 1015.1
20260505173629 80 305 0.0 5.0 0.00 0.00 0.00 46 1015.1
20260505173129 80 272 0.0 5.0 0.00 0.00 0.00 46 1015.2
20260505172628 79 205 1.0 4.0 0.00 0.00 0.00 48 1015.2
20260505172129 79 50 1.0 5.0 0.00 0.00 0.00 45 1015.3
20260505171631 80 61 0.0 6.0 0.00 0.00 0.00 47 1015.3
20260505171129 80 345 0.0 6.0 0.00 0.00 0.00 48 1015.3
20260505170628 79 134 0.0 5.0 0.00 0.00 0.00 48 1015.3
20260505170129 79 49 0.0 5.0 0.00 0.00 0.00 48 1015.5
20260505165630 79 31 0.0 3.0 0.00 0.00 0.00 49 1015.5
20260505165131 79 37 0.0 3.0 0.00 0.00 0.00 47 1015.5
20260505164631 79 70 0.0 3.0 0.00 0.00 0.00 47 1015.6
20260505164130 79 257 1.0 4.0 0.00 0.00 0.00 49 1015.6
20260505163851 79 117 0.0 4.0 0.00 0.00 0.00 50 1015.6
20260505163614 78 71 0.0 3.0 0.00 0.00 0.00 50 1015.6
20260505162617 78 77 0.0 3.0 0.00 0.00 0.00 50 1015.7
20260505162109 78 235 0.0 3.0 0.00 0.00 0.00 51 1015.8
20260505161603 78 2 0.0 3.0 0.00 0.00 0.00 50 1015.8
20260505161103 78 356 0.0 4.0 0.00 0.00 0.00 55 1015.8
20260505160603 78 57 0.0 4.0 0.00 0.00 0.00 51 1015.8
20260505160106 77 96 0.0 5.0 0.00 0.00 0.00 54 1015.8
20260505153102 76 233 0.0 3.0 0.00 0.00 0.00 54 1016.3
20260505152604 76 24 0.0 2.0 0.00 0.00 0.00 56 1016.2
20260505152104 75 42 0.0 4.0 0.00 0.00 0.00 56 1016.2
20260505151603 75 299 0.0 5.0 0.00 0.00 0.00 57 1016.2
20260505151103 74 231 0.0 5.0 0.00 0.00 0.00 57 1016.4
20260505150603 74 47 0.0 2.0 0.00 0.00 0.00 56 1016.4
20260505150104 74 45 0.0 3.0 0.00 0.00 0.00 57 1016.3
20260505140603 71 32 0.0 2.0 0.00 0.00 0.00 64 1016.3